User: anonymous   Login
Location: Vancouver
(49.2500°N, 123.1330°W)
Time: 20:37:18
(UTC-07:00)
Language:

H-2A R/B - Orbit

View from above orbital plane
View from above orbital plane
View from above satellite
View from above satellite

Ground track
Ground track

The orbit data is extracted from the following two-line orbital elements,

1 27601U 02056E   15182.22534446  .00000077  00000-0  44040-4 0  9996
2 27601 098.4534 260.5722 0071074 258.4719 158.7801 14.31613430655226
Epoch (UTC): 01 July 2015 05:24:29
Eccentricity: 0.0071074
inclination: 98.4534°
perigee height: 735 km
apogee height: 837 km
right ascension of ascending node: 260.5722°
argument of perigee: 258.4719°
revolutions per day: 14.31613430
mean anomaly at epoch: 158.7801°
orbit number at epoch: 65522

The dashed part of the orbit path shows where the satellite is in the earth's shadow,  

DLR